Regional Weather Roundup
Issued by NWS

Home | Current Version | Previous Version | Text Only | Print | Product List | Glossary Off
Versions: 1 2 3 4 5 6 7 8 9 10 11 12 13 14 15 16 17 18 19 20 21 22 23 24 25 26 27 28 29 30 31 32 33 34 35 36 37 38 39 40 41 42 43 44 45 46 47 48 49 50

000
ASUS43 KLOT 291210
RWRIL

ILLINOIS REGIONAL WEATHER ROUNDUP
NATIONAL WEATHER SERVICE CHICAGO/ROMEOVILLE IL
700 AM CDT FRI AUG 29 2014

NOTE: "FAIR" INDICATES FEW OR NO CLOUDS BELOW 12,000 FEET WITH NO
SIGNIFICANT WEATHER AND/OR OBSTRUCTIONS TO VISIBILITY.

* THESE STATIONS ARE NOT UNDER NWS QUALITY CONTROL. THEY ALSO MAY NOT
  REPORT WEATHER SUCH AS PRECIPITATION OR FOG.

ILZ001-002-007-009-015-016-024-291300-
NORTHWEST ILLINOIS

CITY           SKY/WX    TMP DP  RH WIND       PRES   REMARKS
MOLINE         PTCLDY    71  67  87 S8        29.91S
6HR MIN TEMP:  70; 6HR MAX TEMP:  71;

STERLING*      PTCLDY    70  66  88 SE3       29.95R
SAVANNA*       PTCLDY    68  66  94 NW3       29.95R FOG
$$

ILZ003-004-008-010-011-017-018-291300-
NORTH CENTRAL ILLINOIS

CITY           SKY/WX    TMP DP  RH WIND       PRES   REMARKS
ROCKFORD       MOCLDY    69  66  90 S7        29.97R
6HR MIN TEMP:  66; 6HR MAX TEMP:  70; 6HR PCP:  0.14;

FREEPORT*      PTCLDY    64  63  96 E3        29.97R FOG
ROCHELLE*      MOCLDY    68  66  93 SE6       29.96S FOG
DE KALB*       CLOUDY    67  66  94 SE8       29.99R
PERU*          MOCLDY    69  68  95 S8        29.97S
$$

ILZ005-006-012>014-019>023-291300-
NORTHEAST ILLINOIS

CITY           SKY/WX    TMP DP  RH WIND       PRES   REMARKS
CHICAGO-OHARE  CLOUDY    72  64  76 S8        29.98S
6HR MIN TEMP:  71; 6HR MAX TEMP:  72;

CHICAGO-MIDWAY CLOUDY    73  66  78 S9        29.99R
6HR MIN TEMP:  73; 6HR MAX TEMP:  74;

AURORA         MOCLDY    70  66  87 SE6       29.98S FOG
6HR MIN TEMP:  69; 6HR MAX TEMP:  70;

LANSING*       CLOUDY    69  64  85 SE8       30.01R
JOLIET*        CLOUDY    69  66  90 SE5       29.99S
WAUKEGAN       CLOUDY    71  65  81 SE8       29.98R
6HR MIN TEMP:  70; 6HR MAX TEMP:  71;

DUPAGE AIRPORT CLOUDY    70  67  90 SE7       29.98R
6HR MIN TEMP:  69; 6HR MAX TEMP:  70;

KANKAKEE*      MOCLDY    70  67  92 SE6       30.01R
WHEELING       CLOUDY    72  66  81 S7        30.00R
6HR MIN TEMP:  70; 6HR MAX TEMP:  72;

MORRIS*        CLOUDY    70  70 100 SE3       29.98R FOG
ROMEOVILLE*    CLOUDY    69  68  94 SE5       29.99S
NORTHERLY ISL    N/A     71  64  78 S9          N/A
$$

LMZ740>746-291300-
SOUTHERN LAKE MICHIGAN

STATION/POSITION SKY/WX   TEMP    WIND        PRES    VSBY  WAVE
                          AIR SEA DIR/SP/G                  HT/PER
                          (F)     (DEG/KT/KT) (MB)    (MI)  (FT/S)
SOUTHERN BUOY              69 69  150/ 16/ 19 1015.6R         3/ 4
WAUKEGAN HARBOR            72     170/ 11/ 13   N/A
HARRISON CRIB              71     170/ 18/ 20   N/A
BURNHAM HARBOR             71     160/  5/ 10   N/A
CALUMET HARBOR             71     150/  5/  8 1014.6R
MICHIGAN CITY              69     130/ 13/ 16   N/A
MICHIGAN CITY 6N           70 71  150/ 14/ 17   N/A           2/ 2
ST. JOSEPH                 69 70  150/ 14/ 17   N/A           1/ 2
$$

ILZ025>027-034>036-040-047-049-050-058-095>099-291300-
WEST-CENTRAL ILLINOIS

CITY           SKY/WX    TMP DP  RH WIND       PRES   REMARKS
QUINCY         CLEAR     71  69  93 SE5       29.93R FOG
GALESBURG*     MOCLDY    69  68  95 SE6       29.94S
MACOMB*        PTCLDY    69  68  98 SE7       29.96S FOG
JACKSONVILLE*  MOCLDY    75  72  89 SE8       29.97R FOG
PITTSFIELD*      N/A     72  70  92 SE6       29.96R FOG
$$

ILZ028>032-037-038-041>044-048-051>054-059>061-291300-
CENTRAL ILLINOIS

CITY           SKY/WX    TMP DP  RH WIND       PRES   REMARKS
PONTIAC        CLOUDY    72  72 100 SE6       29.98R FOG
DECATUR        MOCLDY    73  70  90 SE3       30.00R
PEORIA         MOCLDY    73  68  84 S10       29.97R
6HR MIN TEMP:  71; 6HR MAX TEMP:  73;

LACON*         CLOUDY    70  67  92 CALM      29.96R
LINCOLN*       MOCLDY    71  69  94 S3        29.96R FOG
SPRINGFIELD    CLOUDY    73  70  90 S5        29.98R
6HR MIN TEMP:  70; 6HR MAX TEMP:  73;

TAYLORVILLE    CLOUDY    70  70 100 SE5       29.99R
$$

ILZ033-039-045-046-055>057-062-063-291300-
EAST-CENTRAL ILLINOIS

CITY           SKY/WX    TMP DP  RH WIND       PRES   REMARKS
CHAMPAIGN      MOCLDY    71  69  93 SE7       30.01R FOG
DANVILLE*      CLOUDY    68  66  93 SE5       29.99R
RANTOUL*       PTCLDY    71  67  88 SE3       30.01R FOG
MATTOON        CLOUDY    73  70  90 SE7       30.00R
PARIS*         PTCLDY    70  69  96 SE5       30.02R
$$

ILZ079-100>102-291300-
SOUTHWEST ILLINOIS

CITY           SKY/WX    TMP DP  RH WIND       PRES   REMARKS
ALTON          MOCLDY    70  68  94 SE5       29.98  FOG
BELLEVILLE     MOCLDY    72  72 100 E3        29.97R FOG
CAHOKIA*       CLEAR     72  70  93 CALM      29.96R FOG
SPARTA*        PTCLDY    70  69  99 CALM      29.99R FOG
$$

ILZ064>066-069>071-074>076-080>082-084>086-088>090-092>094-291300-
SOUTH-CENTRAL ILLINOIS

CITY           SKY/WX    TMP DP  RH WIND       PRES   REMARKS
CARBONDALE     PTCLDY    69  67  93 E3        29.98R FOG
6HR MIN TEMP:  68; 6HR MAX TEMP:  72;

CAIRO*         FOG       70  68  94 CALM      29.97R VSB 3/4
EFFINGHAM*     RAIN      73  70  89 SE6       30.00R
MARION         PTCLDY    72  70  94 CALM      30.00R FOG
MT. VERNON     CLEAR     72  66  83 CALM      30.00R
CENTRALIA*     CLEAR     71  68  91 SE5       29.99R FOG
SALEM*         PTCLDY    74  73  95 SE3       29.99S FOG
METROPOLIS*      N/A     70  70 100 CALM      29.98R FOG
$$

ILZ067-068-072-073-078-083-087-091-291300-
SOUTHEAST ILLINOIS

CITY           SKY/WX    TMP DP  RH WIND       PRES   REMARKS
LAWRENCEVILLE  PTCLDY    74  72  93 E5        30.01R FOG
FLORA*         PTCLDY    72  71  96 CALM      30.00R FOG
FAIRFIELD*     PTCLDY    73  72  94 CALM      30.00R FOG
HARRISBURG*      N/A     71  71 100 CALM      30.00R FOG
ROBINSON*      MOCLDY    75  73  94 SE7       30.02R FOG
CARMI*           N/A     72  72  99 SE3       29.99R FOG
$$

ABBREVIATIONS USED IN REMARKS
   TC - TEMPERATURE IN CELSIUS
  WCI - WIND CHILL INDEX
   HX - HEAT INDEX
  VSB - VISIBILITY
$$




USA.gov is the U.S. government's official web portal to all federal, state and local government web resources and services.